Location: Mahannah Oil Field
(37.4664°N, 96.6003°W)
Time: 14:16:22
(UTC+00:00)

Tiros 1 - All Passes

Search period start: 23 January 2021 00:00
Search period end: 02 February 2021 00:00
Orbit: 630 x 663 km, 48.4° (Epoch: 23 January)

Date Brightness Start Highest point End Pass type
(mag) Time Alt. Az. Time Alt. Az. Time Alt. Az.
23 Jan - 01:14:24 10° WSW 01:18:54 49° NNW 01:23:24 10° NE visible
23 Jan - 02:58:15 10° WNW 03:01:53 22° N 03:05:30 10° NE visible
23 Jan - 04:41:26 10° NW 04:45:13 24° NNE 04:49:01 10° ENE night (unlit)
23 Jan - 06:23:25 10° NW 06:28:01 67° NNE 06:32:38 10° ESE night (unlit)
23 Jan - 08:06:16 10° W 08:09:53 23° SW 08:13:31 10° S night (unlit)
23 Jan - 22:19:08 10° SSE 22:21:06 12° SE 22:23:02 10° ESE daylight
23 Jan - 23:58:01 10° SW 00:02:40 77° SE 00:07:18 10° ENE visible
24 Jan - 01:41:06 10° W 01:45:11 30° NNW 01:49:17 10° NE visible
24 Jan - 03:24:56 10° NW 03:28:27 21° N 03:31:57 10° NE visible
24 Jan - 05:07:23 10° NW 05:11:38 35° NNE 05:15:52 10° E night (unlit)
24 Jan - 06:49:28 10° WNW 06:54:00 58° SW 06:58:33 10° SE night (unlit)
24 Jan - 22:42:37 10° SSW 22:46:42 30° SE 22:50:45 10° ENE daylight
25 Jan - 00:24:10 10° WSW 00:28:43 53° NNW 00:33:15 10° NE visible
25 Jan - 02:07:59 10° WNW 02:11:39 23° N 02:15:19 10° NE visible
25 Jan - 03:51:15 10° NW 03:55:00 24° NNE 03:58:45 10° ENE night (unlit)
25 Jan - 05:33:16 10° NW 05:37:51 62° NNE 05:42:26 10° ESE night (unlit)
25 Jan - 07:16:00 10° W 07:19:45 25° SW 07:23:31 10° S night (unlit)
25 Jan - 21:29:34 10° SE 21:30:58 11° SE 21:32:22 10° ESE daylight
25 Jan - 23:07:52 10° SW 23:12:30 70° SE 23:17:08 10° ENE daylight
26 Jan - 00:50:49 10° W 00:54:59 31° NNW 00:59:08 10° NE visible
26 Jan - 02:34:43 10° NW 02:38:13 21° N 02:41:43 10° NE visible
26 Jan - 04:17:14 10° NW 04:21:26 33° NNE 04:25:37 10° E night (unlit)
26 Jan - 05:59:16 10° WNW 06:03:51 63° SW 06:08:25 10° SE night (unlit)
26 Jan - 21:52:35 10° SSW 21:56:33 28° SE 22:00:30 10° ENE daylight
26 Jan - 23:33:56 10° WSW 23:38:32 57° NNW 23:43:06 10° NE daylight
27 Jan - 01:17:42 10° WNW 01:21:25 23° N 01:25:09 10° NE visible
27 Jan - 03:01:04 10° NW 03:04:46 23° N 03:08:29 10° ENE visible
27 Jan - 04:43:06 10° NW 04:47:40 57° NNE 04:52:13 10° ESE night (unlit)
27 Jan - 06:25:44 10° WNW 06:29:37 27° SW 06:33:31 10° SSE night (unlit)
27 Jan - 20:40:46 10° SE 20:40:51 10° SE 20:40:56 10° SE daylight
27 Jan - 22:17:43 10° SW 22:22:20 65° SE 22:26:57 10° ENE daylight
28 Jan - 00:00:33 10° W 00:04:46 33° NNW 00:08:59 10° NE daylight
28 Jan - 01:44:29 10° NW 01:47:59 21° N 01:51:29 10° NE visible
28 Jan - 03:27:04 10° NW 03:31:13 31° NNE 03:35:21 10° E visible
28 Jan - 05:09:05 10° WNW 05:13:41 69° SW 05:18:17 10° SE night (unlit)
28 Jan - 06:54:03 10° WSW 06:55:12 11° SW 06:56:20 10° SW night (unlit)
28 Jan - 21:02:34 10° S 21:06:25 25° SE 21:10:16 10° ENE daylight
28 Jan - 22:43:43 10° WSW 22:48:21 61° NNW 22:52:57 10° NE daylight
29 Jan - 00:27:25 10° WNW 00:31:13 24° NNW 00:34:57 10° NE visible
29 Jan - 02:10:52 10° NW 02:14:33 23° N 02:18:13 10° ENE visible
29 Jan - 03:52:57 10° NW 03:57:29 53° NNE 04:02:00 10° ESE night (unlit)
29 Jan - 05:35:29 10° WNW 05:39:29 30° SW 05:43:30 10° SSE night (unlit)
29 Jan - 21:27:34 10° SW 21:32:11 59° SE 21:36:46 10° ENE daylight
29 Jan - 23:10:17 10° W 23:14:34 35° NNW 23:18:50 10° NE daylight
30 Jan - 00:54:14 10° NW 00:57:45 21° N 01:01:16 10° NE visible
30 Jan - 02:36:54 10° NW 02:41:01 30° NNE 02:45:06 10° E visible
30 Jan - 04:18:55 10° WNW 04:23:32 76° SW 04:28:08 10° SE night (unlit)
30 Jan - 06:03:17 10° WSW 06:05:05 12° SW 06:06:52 10° SSW night (unlit)
30 Jan - 20:12:34 10° S 20:16:17 23° SE 20:19:59 10° E daylight
30 Jan - 21:53:29 10° WSW 21:58:09 66° NNW 22:02:48 10° NE daylight
30 Jan - 23:37:08 10° WNW 23:40:59 24° NNW 23:44:47 10° NE daylight
31 Jan - 01:20:40 10° NW 01:24:19 22° N 01:27:58 10° ENE visible
31 Jan - 03:02:47 10° NW 03:07:18 50° NNE 03:11:47 10° ESE visible
31 Jan - 04:45:14 10° WNW 04:49:21 32° SW 04:53:27 10° SSE night (unlit)
31 Jan - 20:37:26 10° SW 20:42:01 54° SE 20:46:35 10° ENE daylight
31 Jan - 22:20:01 10° W 22:24:21 36° NNW 22:28:41 10° NE daylight
01 Feb - 00:03:58 10° NW 00:07:31 21° N 00:11:03 10° NE daylight
01 Feb - 01:46:44 10° NW 01:50:48 29° NNE 01:54:50 10° E visible
01 Feb - 03:28:44 10° WNW 03:33:22 82° SW 03:37:58 10° SE visible
01 Feb - 05:12:43 10° W 05:14:58 13° SW 05:17:12 10° SSW night (unlit)
01 Feb - 19:22:35 10° S 19:26:09 21° SE 19:29:42 10° E daylight
01 Feb - 21:03:16 10° WSW 21:07:59 71° NNW 21:12:38 10° NE daylight
01 Feb - 22:46:51 10° WNW 22:50:45 25° NNW 22:54:37 10° NE daylight
